< < Back
Terminal Aerodrome Forecast


Current Version              Previous Versions:   1  2  3  4  5  6  7  8  9  

Terminal Aerodrome Forecast

680
FTUS42 KFFC 211100
TAFFTY
TAF
KFTY 211133Z 2112/2212 00000KT P6SM SKC
     FM211400 30006KT P6SM SKC
     FM211700 32009G14KT P6SM FEW030
     FM220000 33005KT P6SM SKC=

Latest METAR

399
SAUS70 KWBC 221500 RRW
MTRFTY
METAR KFTY 221453Z 35007KT 10SM CLR 14/04 A3013 RMK AO2 SLP199 T01390044
51015


USA.gov is the U.S. government's official web portal to all federal, state and local government web resources and services.